リニア彗星

235P/LINEAR (2018)

English version
Home page
Updated on April 13, 2018

---------------------------------------------------------------------

・ プロフィール

・ 写真集

・ 軌道要素

Epoch 2018 Mar. 23.0 TT = JDT 2458200.5
T 2018 Mar. 17.64303 TT                                 MPCW
q   2.7322664            (2000.0)            P               Q
n   0.12360226     Peri.  333.78978     -0.99732906     -0.03503452
a   3.9913374      Node   204.45914     +0.05078413     -0.96326317
e   0.3154509      Incl.    8.90442     -0.05249501     -0.26626424
P   7.97
From 169 observations 2002 Jan. 12-2018 Mar. 24, mean residual 0".6.

・ 光度変化

        m1 = 8.5 + 5 logΔ + 20.0 log r

        ※ 灰色の曲線は、m1 = 12.0 + 5 logΔ + 10.0 log r の光度曲線です。

---------------------------------------------------------------------

軌道要素はM.P.E.C. 2018-F152に掲載されたものです。
光度グラフはComet for Windowsで作成したものです。

---------------------------------------------------------------------

Copyright(C) Seiichi Yoshida (comet@aerith.net). All rights reserved.